Find Starlink 4129

NORAD ID: 53251 Int'l Des: 2022-086 Owner: SPXS Country: US Constellation: starlink operational
LEOCIRCULAR

現在のビュー

3D地球を読み込み中...

About Starlink 4129

Starlink 4129 (NORAD 53251) is a starlink constellation satellite (v1.5) launched Jul 24, 2022 by SPXS of US. It operates in LEO, CIRCULAR orbit with a mass of 297.00 kg.

Starlink 4129について

説明を読み込み中...

次回通過

Passes for default location (London). Set your location on the main map for personalized predictions.

高度履歴

Loading altitude history...

軌道要素

1 53251U 22086K 26167.13501402 -.00000189 00000-0 61993-5 0 9994
2 53251 53.1617 112.0945 0001392 87.8792 272.2359 15.08830541215923
Epoch: Jun 16, 2026 • Age: 9 hours

現在のステータス

高度 541.2 km
速度 7.60 km/s
衛星直下点 32.11°N, 179.15°W
打ち上げ日 Jul 24, 2022
運用期間 3.8 years
タイプ internet

技術仕様

分類 Payload
質量 297.00 kg
乾燥質量 275.00 kg
総質量 297.00 kg
長さ 0.20 m
直径 2.80 m
スパン 9.00 m
形状 Box + pan
製造者 SPXS
バスタイプ Starlink
フェーズステータス In Orbit
所有者/国 SPXS/US

Most Searched